Location: Bishop's University Astronomical Observatory
(45.3661°N, 71.8475°W)
Time: 02:40:07
(UTC-04:00)

CZ-4C R/B - Visible Passes

Search period start: 23 October 2014 00:00
Search period end: 02 November 2014 00:00
Orbit: 786 x 1217 km, 63.4° (Epoch: 21 October)

Date Brightness Start Highest point End Pass type
(mag) Time Alt. Az. Time Alt. Az. Time Alt. Az.
23 Oct 5.1 02:24:57 13° NNE 02:24:57 13° NNE 02:26:10 10° NNE visible
23 Oct 4.6 04:10:09 13° NNW 04:13:30 19° NNE 04:18:16 10° ENE visible
23 Oct 3.7 05:57:19 10° NNW 06:03:47 46° NE 06:10:50 10° ESE visible
24 Oct 4.9 02:57:43 15° N 02:57:43 15° N 03:00:57 10° NE visible
24 Oct 4.4 04:42:55 11° NNW 04:48:06 26° NNE 04:54:00 10° E visible
24 Oct 3.0 06:30:51 10° NW 06:37:43 77° NE 06:45:14 10° SE visible
25 Oct 4.7 03:30:32 17° N 03:31:59 18° NNE 03:36:30 10° NE visible
25 Oct 3.9 05:16:08 10° NNW 05:22:26 40° NE 05:29:17 10° ESE visible
26 Oct 5.2 02:18:11 13° NNE 02:18:11 13° NNE 02:19:20 10° NE visible
26 Oct 4.5 04:03:24 17° N 04:06:39 24° NNE 04:12:16 10° ENE visible
26 Oct 3.1 05:49:38 10° NW 05:56:27 68° NE 06:03:53 10° SE visible
27 Oct 4.9 02:51:07 17° NNE 02:51:07 17° NNE 02:54:44 10° NE visible
27 Oct 4.0 04:36:20 16° NNW 04:41:03 36° NE 04:47:42 10° ESE visible
27 Oct 2.8 06:23:17 10° NW 06:30:10 70° WSW 06:37:38 10° SSE visible
28 Oct 4.5 03:24:08 21° N 03:25:11 22° NNE 03:30:31 10° ENE visible
28 Oct 3.3 05:09:21 15° NNW 05:15:09 59° NE 05:22:29 10° SE visible
29 Oct 5.2 02:12:01 12° NE 02:12:01 12° NE 02:13:00 10° NE visible
29 Oct 4.1 03:57:15 26° N 03:59:40 32° NE 04:06:04 10° E visible
29 Oct 2.7 05:42:28 12° NW 05:48:56 81° SW 05:56:28 10° SSE visible
30 Oct 4.8 02:45:14 19° NE 02:45:14 19° NE 02:48:44 10° ENE visible
30 Oct 3.4 04:30:28 29° NNW 04:33:50 51° NE 04:41:02 10° ESE visible
30 Oct 3.2 06:15:55 10° NW 06:22:27 44° WSW 06:29:29 10° S visible
31 Oct 4.3 03:18:35 29° NE 03:18:35 29° NE 03:24:23 10° E visible
31 Oct 2.7 05:03:49 30° NW 05:07:42 88° NE 05:15:14 10° SE visible
31 Oct 4.0 06:50:27 10° WNW 06:55:42 23° WSW 07:01:11 10° SSW visible
31 Oct 4.3 20:26:05 10° SSW 20:26:49 14° SSW 20:26:49 14° SSW visible
01 Nov 5.4 02:06:48 10° ENE 02:06:48 10° ENE 02:06:57 10° ENE visible
01 Nov 3.5 03:52:04 45° NNE 03:52:30 45° NE 03:59:32 10° ESE visible
01 Nov 3.0 05:37:19 25° WNW 05:41:17 52° WSW 05:48:31 10° SSE visible
01 Nov 3.7 19:13:16 10° SSE 19:15:22 17° SE 19:15:22 17° SE visible
01 Nov 4.3 20:59:27 10° SW 21:00:38 17° SW 21:00:38 17° SW visible
